Flag for U.S.A. Weather past 2 weeks in Post Falls, Idaho, U.S.A.

Now
39 °F

Mostly cloudy.


Feels Like: 36 °F
Forecast: 37 / 47 °F
Wind: 5 mph from Southwest

Location: Coeur d'Alene Weather Reporting System

Current Time: Dec 20, 2014 at 9:36:01 PM

Latest Report: Dec 20, 2014 at 9:15 PM


Visibility: 10 mi

Pressure: 29.56 "Hg

Humidity: 87%

Dew point: 36 °F

Location of Post FallsLocation

Historic Weather in Post Falls — Graph

°F

Post Falls temperature yesterday

Maximum temperature yesterday: 39 °F (at 8:15 AM)
Minimum temperature yesterday: 36 °F (at 1:55 AM)
Average temperature yesterday: 38 °F

Past Weeks' High & Low Weather Summary

 TemperatureHumidityPressure
High55 °F (Dec 10, 8:55 PM)100% (Dec 7, 5:55 AM)30.32 "Hg (Dec 7, 5:55 AM)
Low27 °F (Dec 15, 7:15 AM)63% (Dec 10, 8:35 PM)29.45 "Hg (Dec 11, 6:15 PM)
Average38 °F86%29.97 "Hg
* Reported Dec 5 8:15 PM — Dec 20 8:35 PM, Post Falls, Weather by CustomWeather, © 2014

Note: Actual official high and low records may vary slightly from our data, if they occured in-between our weather recording intervals... More about our weather records

Advertising

Post Falls weather history for previous 24 hours

 ConditionsComfort  
Time TempWeatherWind HumidityBarometerVisibility
8:35 PM
Dec 20
39 °FOvercast.7 mph87%29.57 "Hg10 mi
8:15 PM39 °FOvercast.6 mph87%29.59 "Hg10 mi
7:55 PM39 °FOvercast.8 mph87%29.60 "Hg10 mi
7:35 PM39 °FMostly cloudy.7 mph87%29.60 "Hg10 mi
6:55 PM39 °FMostly cloudy.10 mph87%29.63 "Hg10 mi
6:35 PM39 °FMostly cloudy.12 mph87%29.64 "Hg10 mi
6:15 PM39 °FOvercast.12 mph87%29.65 "Hg10 mi
5:55 PM39 °FMostly cloudy.9 mph87%29.66 "Hg10 mi
5:35 PM39 °FOvercast.8 mph87%29.67 "Hg10 mi
5:15 PM39 °FMostly cloudy.7 mph87%29.68 "Hg10 mi
4:55 PM39 °FMostly cloudy.5 mph93%29.68 "Hg10 mi
4:35 PM39 °FMostly cloudy.5 mph93%29.69 "Hg10 mi
4:15 PM39 °FMostly cloudy.No wind93%29.69 "Hg9 mi
3:55 PM39 °FMostly cloudy.3 mph93%29.69 "Hg5 mi
3:35 PM39 °FCloudy.No wind87%29.70 "Hg5 mi
3:15 PM39 °FMostly cloudy.No wind87%29.71 "Hg3 mi
2:55 PM39 °FOvercast.No wind93%29.71 "Hg6 mi
2:35 PM39 °FOvercast.3 mph93%29.72 "Hg10 mi
2:15 PM39 °FMostly cloudy.3 mph93%29.73 "Hg10 mi
1:55 PM39 °FMostly cloudy.5 mph93%29.74 "Hg10 mi
1:35 PM39 °FMore clouds than sun.No wind87%29.75 "Hg10 mi
12:55 PM39 °FOvercast.No wind87%29.77 "Hg10 mi
12:35 PM39 °FMore clouds than sun.No wind87%29.77 "Hg10 mi
12:15 PM39 °FMostly cloudy.3 mph87%29.78 "Hg10 mi
11:55 AM37 °FOvercast.3 mph93%29.79 "Hg10 mi
11:35 AM37 °FOvercast.6 mph87%29.79 "Hg9 mi
11:15 AM37 °FOvercast.6 mph87%29.80 "Hg10 mi
10:55 AM37 °FOvercast.3 mph93%29.80 "Hg10 mi
10:35 AM37 °FOvercast.3 mph87%29.81 "Hg10 mi
10:15 AM37 °FPartly sunny.No wind87%29.83 "Hg10 mi
9:55 AM36 °FPartly sunny.No wind87%29.83 "Hg9 mi
9:35 AM36 °FPartly sunny.No wind93%29.83 "Hg7 mi
9:15 AM36 °FPartly sunny.No wind87%29.84 "Hg10 mi
8:55 AM34 °FPartly sunny.No wind87%29.85 "Hg9 mi
8:35 AM34 °FMore clouds than sun.3 mph87%29.86 "Hg7 mi
8:15 AM34 °FMostly cloudy.No wind87%29.86 "Hg5 mi
7:55 AM34 °FMostly cloudy.6 mph87%29.86 "Hg4 mi
7:35 AM34 °FPartly sunny.5 mph87%29.87 "Hg5 mi
7:15 AM34 °FPassing clouds.7 mph81%29.87 "Hg5 mi
6:55 AM34 °FOvercast.3 mph87%29.88 "Hg10 mi
6:35 AM32 °FPassing clouds.3 mph93%29.88 "Hg8 mi
6:15 AM32 °FPassing clouds.No wind87%29.89 "Hg8 mi
5:55 AM32 °FClear.No wind87%29.89 "Hg10 mi
5:35 AM34 °FClear.No wind87%29.89 "Hg10 mi
5:15 AM34 °FPassing clouds.No wind87%29.90 "Hg10 mi
4:55 AM34 °FPassing clouds.6 mph87%29.91 "Hg10 mi
4:35 AM34 °FPassing clouds.5 mph87%29.92 "Hg10 mi
4:15 AM34 °FPassing clouds.5 mph87%29.93 "Hg10 mi
3:55 AM34 °FPassing clouds.No wind87%29.94 "Hg9 mi
3:35 AM34 °FClear.3 mph87%29.94 "Hg6 mi
3:15 AM34 °FPassing clouds.3 mph87%29.95 "Hg10 mi
2:55 AM34 °FPartly cloudy.No wind87%29.96 "Hg10 mi
2:35 AM34 °FPassing clouds.No wind87%29.96 "Hg10 mi
2:15 AM36 °FClear.5 mph87%29.95 "Hg10 mi
1:55 AM37 °FPassing clouds.No wind87%29.96 "Hg10 mi
1:35 AM36 °FClear.6 mph93%29.96 "Hg10 mi
1:15 AM37 °FClear.3 mph87%29.97 "Hg10 mi
12:55 AM37 °FPassing clouds.6 mph81%29.97 "Hg10 mi
12:35 AM37 °FPassing clouds.No wind87%29.97 "Hg10 mi
12:15 AM37 °FClear.3 mph87%29.97 "Hg10 mi
11:55 PM
Dec 19
37 °FClear.6 mph81%29.98 "Hg10 mi
11:35 PM37 °FPassing clouds.6 mph87%29.98 "Hg10 mi
11:15 PM36 °FMostly cloudy.6 mph87%29.99 "Hg10 mi
10:55 PM37 °FOvercast.3 mph87%29.99 "Hg10 mi
10:35 PM37 °FMostly cloudy.3 mph87%30.00 "Hg10 mi
10:15 PM37 °FOvercast.5 mph87%30.00 "Hg10 mi
9:55 PM37 °FMostly cloudy.6 mph87%30.00 "Hg10 mi
9:35 PM39 °FMostly cloudy.3 mph81%30.00 "Hg10 mi
9:15 PM39 °FMostly cloudy.6 mph87%30.00 "Hg10 mi
Weather by CustomWeather, © 2014

See weather overviewHow to use our weather pages